Date String (YYYY-MM-DD hh:mm:ss) UTC,Instrument flags,Ambient pressure (hPa),Sample flow (lpm),Bypass flow (lpm),Sample temperature (°C),Ambient temperature (°C),ASC tube jacket temperature (°C),LED temperature (°C),Box temperature (°C),Sample RH (%),Span deviation,Mass concentration (μg/m³),Mass concentration (μg/m³),Mass concentration (μg/m³)
DateTimeUTC,F1_M11,P_M11,Q1_M11,Q2_M11,T1_M11,T2_M11,T3_M11,T4_M11,T5_M11,U1_M11,ZSPAN_M11,X0_M11,X2_M11,X1_M11
2022-08-08 05:00:00,,0833.3,5.00,0.00,32.4,27.5,00.0,40.0,32.5,34.1,0000.0,0008.19,0004.84,0004.19
2022-08-08 05:01:00,,0833.3,4.99,0.00,32.5,27.6,00.0,40.0,32.4,34.0,0000.0,0008.33,0004.82,0004.15
2022-08-08 05:02:00,,0833.2,5.00,0.00,32.5,27.8,00.0,40.1,32.4,34.0,0000.0,0008.61,0004.76,0004.14
2022-08-08 05:03:00,,0833.3,4.99,0.00,32.5,27.9,00.0,40.1,32.4,33.9,0000.0,0008.54,0004.70,0004.12
2022-08-08 05:04:00,,0833.3,5.00,0.00,32.5,28.1,00.0,40.2,32.4,34.1,0000.0,0008.63,0004.70,0004.10
2022-08-08 05:05:00,,0833.3,5.01,0.00,32.4,28.2,00.0,40.2,32.4,34.0,0000.0,0008.59,0004.70,0004.08
2022-08-08 05:06:00,,0833.3,5.01,0.00,32.3,28.4,00.0,40.2,32.4,34.1,0000.0,0008.48,0004.65,0004.06
2022-08-08 05:07:00,,0833.4,5.00,0.00,32.3,28.5,00.0,40.2,32.4,34.3,0000.0,0008.57,0004.65,0004.04
2022-08-08 05:08:00,,0833.4,5.00,0.00,32.2,28.6,00.0,40.3,32.4,34.4,0000.0,0008.44,0004.60,0004.03
2022-08-08 05:09:00,,0833.4,5.00,0.00,32.1,28.7,00.0,40.3,32.4,34.6,0000.0,0008.36,0004.58,0004.03
2022-08-08 05:10:00,,0833.4,5.00,0.00,32.1,28.7,00.0,40.3,32.4,34.6,0000.0,0008.47,0004.61,0004.02
2022-08-08 05:11:00,,0833.4,5.00,0.00,32.0,28.8,00.0,40.3,32.4,34.6,0000.0,0008.47,0004.62,0004.02
2022-08-08 05:12:00,,0833.4,5.00,0.00,32.0,28.9,00.0,40.3,32.5,34.6,0000.0,0008.38,0004.64,0004.05
2022-08-08 05:13:00,,0833.4,5.00,0.00,31.9,28.9,00.0,40.3,32.5,34.7,0000.0,0007.98,0004.65,0004.06
2022-08-08 05:14:00,,0833.3,5.00,0.00,31.9,29.0,00.0,40.3,32.5,34.8,0000.0,0008.06,0004.68,0004.07
2022-08-08 05:15:00,,0833.2,5.00,0.00,31.8,29.0,00.0,40.2,32.5,34.8,0000.0,0008.07,0004.68,0004.06
2022-08-08 05:16:00,,0833.3,5.00,0.00,31.8,29.0,00.0,40.2,32.5,34.8,0000.0,0007.99,0004.66,0004.07
2022-08-08 05:17:00,,0833.3,5.00,0.00,31.8,29.1,00.0,40.2,32.5,34.5,0000.0,0007.99,0004.66,0004.06
2022-08-08 05:18:00,,0833.3,4.99,0.00,31.7,29.1,00.0,40.2,32.5,34.4,0000.0,0007.89,0004.63,0004.05
2022-08-08 05:19:00,,0833.2,5.01,0.00,31.7,29.0,00.0,40.2,32.5,34.3,0000.0,0007.86,0004.60,0004.04
2022-08-08 05:20:00,,0833.2,5.00,0.00,31.6,28.4,00.0,40.1,32.3,34.5,0000.0,0007.82,0004.57,0004.03
2022-08-08 05:21:00,,0833.2,5.00,0.00,31.6,27.9,00.0,40.0,32.3,34.6,0000.0,0007.65,0004.50,0004.02
2022-08-08 05:22:00,,0833.2,5.00,0.00,31.4,27.9,00.0,40.0,32.2,34.9,0000.0,0007.68,0004.51,0004.03
2022-08-08 05:23:00,,0833.2,5.01,0.00,31.4,27.9,00.0,39.9,32.1,35.1,0000.0,0007.49,0004.46,0004.01
2022-08-08 05:24:00,,0833.2,5.00,0.00,31.5,28.0,00.0,39.9,32.3,34.6,0000.0,0007.44,0004.43,0003.99
2022-08-08 05:25:00,,0833.1,4.99,0.00,31.6,28.1,00.0,39.9,32.3,34.1,0000.0,0007.35,0004.40,0003.97
2022-08-08 05:26:00,,0833.2,5.00,0.00,31.6,28.2,00.0,39.8,32.3,33.9,0000.0,0007.19,0004.36,0003.97
2022-08-08 05:27:00,,0833.2,5.00,0.00,31.6,28.3,00.0,39.8,32.3,34.1,0000.0,0007.16,0004.34,0003.96
2022-08-08 05:28:00,,0833.1,5.00,0.00,31.5,28.4,00.0,39.8,32.3,34.1,0000.0,0007.28,0004.37,0003.96
2022-08-08 05:29:00,,0833.2,5.00,0.00,31.5,28.5,00.0,39.8,32.3,34.0,0000.0,0007.29,0004.38,0003.95
2022-08-08 05:30:00,,0833.1,5.00,0.00,31.5,28.6,00.0,39.8,32.3,33.9,0000.0,0007.35,0004.40,0003.95
2022-08-08 05:31:00,,0833.1,5.00,0.00,31.4,28.7,00.0,39.8,32.3,33.9,0000.0,0007.38,0004.43,0003.95
2022-08-08 05:32:00,,0833.1,5.00,0.00,31.4,28.8,00.0,39.8,32.3,33.9,0000.0,0007.46,0004.45,0003.95
2022-08-08 05:33:00,,0833.1,5.01,0.00,31.4,28.8,00.0,39.8,32.3,33.7,0000.0,0007.15,0004.39,0003.94
2022-08-08 05:34:00,,0833.0,5.00,0.00,31.4,28.9,00.0,39.8,32.3,33.8,0000.0,0007.22,0004.39,0003.93
2022-08-08 05:35:00,,0833.0,4.99,0.00,31.3,28.9,00.0,39.8,32.3,33.9,0000.0,0007.41,0004.43,0003.93
2022-08-08 05:36:00,,0833.0,5.00,0.00,31.3,29.0,00.0,39.8,32.4,33.8,0000.0,0007.55,0004.45,0003.94
2022-08-08 05:37:00,,0833.1,5.00,0.00,31.3,29.0,00.0,39.8,32.4,33.8,0000.0,0007.59,0004.46,0003.95
2022-08-08 05:38:00,,0833.1,5.00,0.00,31.2,29.1,00.0,39.8,32.4,33.8,0000.0,0007.57,0004.47,0003.96
2022-08-08 05:39:00,,0833.1,5.00,0.00,31.2,29.1,00.0,39.8,32.4,33.4,0000.0,0007.58,0004.46,0003.96
2022-08-08 05:40:00,,0833.0,5.00,0.00,31.2,28.9,00.0,39.8,32.3,33.4,0000.0,0007.56,0004.44,0003.95
2022-08-08 05:41:00,,0833.0,4.99,0.00,31.1,28.1,00.0,39.7,32.1,33.2,0000.0,0007.61,0004.43,0003.95
2022-08-08 05:42:00,,0833.0,5.00,0.00,31.0,27.4,00.0,39.6,32.0,33.8,0000.0,0007.63,0004.43,0003.96
2022-08-08 05:43:00,,0833.0,4.99,0.00,30.9,27.3,00.0,39.6,31.9,34.9,0000.0,0007.58,0004.43,0003.95
2022-08-08 05:44:00,,0832.9,4.99,0.00,30.8,27.3,00.0,39.5,31.8,35.0,0000.0,0007.68,0004.44,0003.95
2022-08-08 05:45:00,,0832.9,5.00,0.00,30.9,27.4,00.0,39.5,31.9,35.0,0000.0,0007.69,0004.43,0003.93
2022-08-08 05:46:00,,0832.9,5.00,0.00,31.0,27.6,00.0,39.4,32.0,34.6,0000.0,0007.66,0004.39,0003.93
2022-08-08 05:47:00,,0832.9,4.99,0.00,31.1,27.7,00.0,39.4,32.0,34.1,0000.0,0007.56,0004.38,0003.92
2022-08-08 05:48:00,,0832.8,4.99,0.00,31.1,27.9,00.0,39.4,32.0,34.1,0000.0,0007.48,0004.36,0003.91
2022-08-08 05:49:00,,0832.9,5.00,0.00,31.1,28.1,00.0,39.4,32.0,33.9,0000.0,0007.43,0004.34,0003.90
2022-08-08 05:50:00,,0832.9,5.00,0.00,31.1,28.2,00.0,39.4,32.0,33.8,0000.0,0007.33,0004.30,0003.89
2022-08-08 05:51:00,,0832.9,5.00,0.00,31.1,28.3,00.0,39.4,32.0,33.9,0000.0,0007.38,0004.34,0003.89
2022-08-08 05:52:00,,0832.8,5.01,0.00,31.0,28.4,00.0,39.4,32.0,34.2,0000.0,0007.37,0004.34,0003.88
2022-08-08 05:53:00,,0832.8,5.00,0.00,31.0,28.5,00.0,39.5,32.0,34.3,0000.0,0007.29,0004.31,0003.87
2022-08-08 05:54:00,,0832.8,5.00,0.00,31.0,28.6,00.0,39.5,32.1,34.3,0000.0,0007.25,0004.30,0003.87
2022-08-08 05:55:00,,0832.8,4.99,0.00,31.0,28.7,00.0,39.5,32.1,34.4,0000.0,0007.23,0004.30,0003.87
2022-08-08 05:56:00,,0832.9,5.00,0.00,31.0,28.7,00.0,39.5,32.1,33.5,0000.0,0007.06,0004.28,0003.87
2022-08-08 05:57:00,,0832.9,5.01,0.00,30.9,28.8,00.0,39.5,32.1,33.5,0000.0,0006.84,0004.27,0003.87
2022-08-08 05:58:00,,0832.8,5.00,0.00,30.9,28.8,00.0,39.5,32.2,33.5,0000.0,0006.64,0004.24,0003.86
2022-08-08 05:59:00,,0832.9,5.01,0.00,30.9,28.9,00.0,39.5,32.2,32.9,0000.0,0006.48,0004.19,0003.83
